User: anonymous   Login
Location: Unspecified
(0.0000°N, 0.0000°E)
Time: 12:56:17
(UTC+00:00)
Language:

ITAMSAT 1 - Orbit

View from above orbital plane
View from above orbital plane
View from above satellite
View from above satellite

Ground track
Ground track

The orbit data is extracted from the following two-line orbital elements,

1 22826U 93061D   18202.93358325  .00000007  00000-0  20404-4 0  9991
2 22826  98.8589 179.7171 0007995 230.7772 129.2701 14.30366842294723
Epoch (UTC): 21 July 2018 22:24:21
Eccentricity: 0.0007995
inclination: 98.8589°
perigee height: 785 km
apogee height: 796 km
right ascension of ascending node: 179.7171°
argument of perigee: 230.7772°
revolutions per day: 14.30366842
mean anomaly at epoch: 129.2701°
orbit number at epoch: 29472

The dashed part of the orbit path shows where the satellite is in the earth's shadow,  

DLR